Location: Qazi Observatory
(41.6337°N, 88.1517°W)
Time: 23:15:39
(UTC-05:00)

Amateur Radio Satellites - All Passes

Search period start: 23 October 2017 22:45
Search period end: 24 October 2017 22:45
Location: Qazi Observatory, 41.6337°N, 88.1517°W

Satellite Date Start Highest point End Downlink Frequencies (MHz)
Time Altitude Azimuth
ESTCUBE 1 23 Oct 22:51:38 22:55:36 32° 69° (ENE) 22:59:34 437.505/2401.250
PRISM 23 Oct 22:54:37 22:58:30 38° 99° (E) 23:02:22 437.425
YUBILEINY 23 Oct 23:00:23 23:04:16 14° 286° (WNW) 23:08:09 435.215
UNISAT 6 23 Oct 23:01:23 23:05:58 72° 285° (WNW) 23:10:24 437.425
TIGRISAT 23 Oct 23:15:08 23:19:38 56° 287° (WNW) 23:23:59 435.000
AIST 2D 23 Oct 23:37:12 23:40:15 28° 96° (E) 23:43:16 435.315
QB50P2 23 Oct 23:37:47 23:39:34 12° 90° (E) 23:41:22 145.880/145.840
DUCHIFAT 1 23 Oct 23:46:32 23:47:01 10° 89° (E) 23:47:30 145.980
VELOX 1 24 Oct 00:00:21 00:04:08 29° 69° (ENE) 00:07:57 145.980
RS-15 24 Oct 00:18:38 00:30:46 71° 116° (ESE) 00:42:58 29.354- 29.394
FO-29 24 Oct 00:19:51 00:21:42 11° 307° (NW) 00:23:35 435.910
LO-87 24 Oct 00:20:06 00:22:15 15° 268° (W) 00:24:25 145.935 - 145.965
SPROUT 24 Oct 00:20:21 00:24:36 70° 75° (ENE) 00:28:54 437.525
ESTCUBE 1 24 Oct 00:28:45 00:32:24 24° 265° (W) 00:36:04 437.505/2401.250
PRISM 24 Oct 00:30:37 00:33:29 18° 294° (WNW) 00:36:21 437.425
EO-79 24 Oct 00:44:57 00:49:12 65° 102° (ESE) 00:53:23 145.935-145.965
POLYITAN 1 24 Oct 00:50:50 00:55:06 76° 103° (ESE) 00:59:19 437.675
DX 1 24 Oct 00:53:57 00:57:36 27° 68° (ENE) 01:01:17 434.975-435.025
UKube-1 24 Oct 01:09:36 01:13:08 26° 67° (ENE) 01:16:42 .
NANOSAT C BR1 24 Oct 01:10:28 01:14:43 73° 284° (WNW) 01:18:54 145.865
AIST 2D 24 Oct 01:10:58 01:13:11 16° 292° (WNW) 01:15:25 435.315
BUGSAT 1 24 Oct 01:11:06 01:14:32 24° 95° (E) 01:17:55 437.445
QB50P2 24 Oct 01:11:31 01:15:42 56° 287° (WNW) 01:19:51 145.880/145.840
Gurwin Techsat 1B 24 Oct 01:16:28 01:16:50 10° 88° (E) 01:17:10 435.225
DUCHIFAT 1 24 Oct 01:18:54 01:23:08 67° 285° (WNW) 01:27:17 145.980
50 SAT 24 Oct 01:34:53 01:38:08 80° 258° (WSW) 01:41:25 437.505
VELOX 1 24 Oct 01:36:55 01:40:33 25° 265° (W) 01:44:12 145.980
Oscar 19 24 Oct 01:48:40 01:53:14 32° 96° (E) 01:57:45 437.125/150
NO-84 24 Oct 01:51:19 01:55:26 47° 132° (SE) 01:59:34 435.350 FM
SPROUT 24 Oct 02:00:33 02:00:57 10° 271° (W) 02:01:20 437.525
ITUPSAT 1 24 Oct 02:15:45 02:19:08 19° 63° (ENE) 02:22:31 437.325
EO-79 24 Oct 02:22:41 02:24:23 12° 298° (WNW) 02:26:05 145.935-145.965
BEESAT 24 Oct 02:27:50 02:31:44 25° 66° (ENE) 02:35:38 436.000
POLYITAN 1 24 Oct 02:29:20 02:30:14 11° 299° (WNW) 02:31:08 437.675
DX 1 24 Oct 02:30:04 02:33:43 26° 264° (W) 02:37:24 434.975-435.025
RS-15 24 Oct 02:32:42 02:44:13 43° 321° (NW) 02:55:40 29.354- 29.394
MOZHAYETS 4 24 Oct 02:43:53 02:48:09 38° 71° (ENE) 02:52:26
UKube-1 24 Oct 02:45:21 02:49:03 28° 264° (W) 02:52:47 .
BUGSAT 1 24 Oct 02:46:13 02:49:51 28° 291° (WNW) 02:53:25 437.445
Gurwin Techsat 1B 24 Oct 02:52:08 02:57:30 86° 104° (ESE) 03:02:49 435.225
CUBESAT XI-V 24 Oct 03:07:47 03:10:30 16° 63° (ENE) 03:13:14 437.345
M-CUBED/EXP-1 PRIME 24 Oct 03:10:46 03:14:23 60° 290° (WNW) 03:18:16 437.505
Oscar 19 24 Oct 03:28:00 03:32:29 31° 293° (WNW) 03:36:57 437.125/150
NO-84 24 Oct 03:29:06 03:33:00 32° 330° (NNW) 03:36:50 435.350 FM
KKS-1 24 Oct 03:44:40 03:45:44 11° 60° (ENE) 03:46:46 437.445
ITUPSAT 1 24 Oct 03:51:55 03:56:34 49° 260° (W) 04:01:15 437.325
AO-7 24 Oct 03:52:36 04:00:25 43° 100° (E) 04:08:11 .
BEESAT 24 Oct 04:04:56 04:09:19 36° 262° (W) 04:13:44 436.000
ITAMSAT 1 24 Oct 04:09:12 04:14:10 41° 99° (E) 04:19:05 435.822/435.867
MOZHAYETS 4 24 Oct 04:21:51 04:25:24 22° 266° (W) 04:28:58
Gurwin Techsat 1B 24 Oct 04:34:10 04:36:41 14° 302° (WNW) 04:39:11 435.225
CUBESAT XI-V 24 Oct 04:42:52 04:47:25 56° 260° (W) 04:51:58 437.345
O/OREOS (USA 219) 24 Oct 04:44:39 04:47:40 17° 54° (NE) 04:50:39 437.305
SO-50 24 Oct 04:49:10 04:50:42 12° 107° (ESE) 04:52:13 436.795
RS-15 24 Oct 04:51:59 05:01:14 23° 354° (N) 05:10:18 29.354- 29.394
DOVE 4 24 Oct 04:53:10 04:56:30 17° 91° (E) 04:59:52 437.250
NO-84 24 Oct 05:09:10 05:11:28 14° 350° (N) 05:13:42 435.350 FM
KKS-1 24 Oct 05:17:09 05:21:35 82° 255° (WSW) 05:26:04 437.445
STARS 24 Oct 05:37:53 05:42:14 67° 74° (ENE) 05:46:39 437.465
AO-7 24 Oct 05:45:25 05:53:09 45° 298° (WNW) 06:00:52 .
ITAMSAT 1 24 Oct 05:49:07 05:53:23 26° 295° (WNW) 05:57:38 435.822/435.867
LilacSat-2 24 Oct 06:00:47 06:03:00 15° 92° (E) 06:05:12 437.200
XW-2D 24 Oct 06:02:19 06:04:31 15° 92° (E) 06:06:42 145.860 - 145.880
XW-2B 24 Oct 06:15:23 06:18:13 20° 94° (E) 06:21:03 145.730 - 145.750
O/OREOS (USA 219) 24 Oct 06:22:56 06:27:26 56° 252° (WSW) 06:31:55 437.305
SO-50 24 Oct 06:26:02 06:30:30 75° 304° (NW) 06:35:01 436.795
DOVE 4 24 Oct 06:29:27 06:34:27 59° 286° (WNW) 06:39:37 437.250
XW-2C 24 Oct 06:38:21 06:41:53 39° 98° (E) 06:45:24 145.795 - 145.815
NO-84 24 Oct 06:48:00 06:50:18 14° 11° (N) 06:52:33 435.350 FM
CUTE-I 24 Oct 06:48:18 06:53:25 43° 98° (E) 06:58:30 437.470
HO-68 24 Oct 06:57:56 07:03:34 24° 93° (E) 07:09:09 435.675
RS-15 24 Oct 07:08:25 07:18:59 33° 29° (NNE) 07:29:04 29.354- 29.394
KAITUO 1B 24 Oct 07:09:55 07:13:36 74° 100° (E) 07:17:17 145.475/437.950
STRAND 1 24 Oct 07:15:29 07:20:33 65° 73° (ENE) 07:25:40 437.568
NUDT-PHONESAT 24 Oct 07:16:51 07:20:31 88° 104° (ESE) 07:24:10 437.300
STARS 24 Oct 07:17:44 07:19:01 11° 270° (W) 07:20:19 437.465
XW-2F 24 Oct 07:19:14 07:22:55 63° 285° (WNW) 07:26:36 145.980 - 146.000
SEEDS 24 Oct 07:26:06 07:29:05 19° 93° (E) 07:32:03 437.485
CUTE 1.7 + AOD 2 24 Oct 07:26:52 07:30:38 31° 96° (E) 07:34:22 437.475
LilacSat-2 24 Oct 07:33:56 07:37:24 35° 288° (WNW) 07:40:51 437.200
XW-2D 24 Oct 07:35:22 07:38:49 35° 288° (WNW) 07:42:14 145.860 - 145.880
CUBEBUG 2 24 Oct 07:36:10 07:39:55 24° 94° (E) 07:43:32 437.445
AAUSAT CUBESAT 2 24 Oct 07:38:34 07:39:30 11° 89° (E) 07:40:25 437.432
AO-7 24 Oct 07:42:42 07:43:47 10° 320° (NW) 07:44:52 .
PCSat 24 Oct 07:44:18 07:49:42 78° 118° (ESE) 07:55:09 145.827
XW-2A 24 Oct 07:44:22 07:46:05 13° 93° (E) 07:47:49 145.665 - 145.685
XW-2B 24 Oct 07:49:14 07:52:22 26° 290° (WNW) 07:55:30 145.730 - 145.750
UWE-3 24 Oct 08:05:00 08:08:50 27° 95° (E) 08:12:31 435.000/436.395/437.385
ISS 24 Oct 08:05:12 08:07:44 21° 134° (SE) 08:10:17 437.550
YUBILEINY 24 Oct 08:06:47 08:13:37 27° 81° (E) 08:20:27 435.215
SO-50 24 Oct 08:09:43 08:11:45 13° 324° (NW) 08:13:47 436.795
XW-2C 24 Oct 08:13:42 08:15:43 14° 294° (WNW) 08:17:45 145.795 - 145.815
NO-84 24 Oct 08:24:57 08:28:41 37° 32° (NNE) 08:32:10 435.350 FM
UNISAT 6 24 Oct 08:26:34 08:28:11 12° 60° (ENE) 08:29:48 437.425
CUTE-I 24 Oct 08:28:50 08:33:13 26° 295° (WNW) 08:37:34 437.470
TIGRISAT 24 Oct 08:39:06 08:41:37 15° 62° (ENE) 08:44:08 435.000
AO-73 24 Oct 08:43:54 08:47:49 33° 96° (E) 08:51:37 145.935
FO-29 24 Oct 08:44:09 08:49:23 69° 73° (ENE) 08:55:09 435.910
HO-68 24 Oct 08:44:39 08:51:46 65° 290° (WNW) 08:58:51 435.675
nSIGHT-1 24 Oct 08:56:35 08:59:46 84° 141° (SE) 09:02:58 .
STRAND 1 24 Oct 08:57:16 09:00:10 15° 270° (W) 09:03:06 437.568
SEEDS 24 Oct 09:01:03 09:04:51 35° 289° (WNW) 09:08:40 437.485
CUTE 1.7 + AOD 2 24 Oct 09:03:01 09:06:16 22° 293° (WNW) 09:09:31 437.475
ZACube-1 24 Oct 09:08:25 09:12:46 73° 101° (ESE) 09:16:59 437.345
AAUSAT CUBESAT 2 24 Oct 09:11:14 09:15:20 62° 285° (WNW) 09:19:24 437.432
CUBEBUG 2 24 Oct 09:12:27 09:16:32 32° 291° (WNW) 09:20:30 437.445
XW-2A 24 Oct 09:15:56 09:18:53 30° 289° (WNW) 09:21:49 145.665 - 145.685
RS-15 24 Oct 09:21:24 09:33:26 85° 58° (ENE) 09:44:44 29.354- 29.394
PCSat 24 Oct 09:29:56 09:33:44 19° 317° (NW) 09:37:34 145.827
Oscar 11 24 Oct 09:37:16 09:41:35 89° 275° (W) 09:45:52 .
ISS 24 Oct 09:40:52 09:44:00 45° 330° (NNW) 09:47:10 437.550
UWE-3 24 Oct 09:41:26 09:45:12 27° 292° (WNW) 09:48:51 435.000/436.395/437.385
PRISM 24 Oct 09:44:04 09:47:30 27° 69° (ENE) 09:50:57 437.425
Max Valier Satellite 24 Oct 09:57:09 09:59:57 20° 94° (E) 10:02:43 145.860
DELFI C3 24 Oct 09:58:11 10:01:46 31° 97° (E) 10:05:20 145.870
UNISAT 6 24 Oct 09:59:30 10:04:10 83° 257° (WSW) 10:08:54 437.425
YUBILEINY 24 Oct 10:01:03 10:09:39 66° 281° (WNW) 10:18:21 435.215
NO-84 24 Oct 10:02:37 10:05:58 29° 232° (SW) 10:09:04 435.350 FM
TIGRISAT 24 Oct 10:13:05 10:17:43 66° 259° (W) 10:22:25 435.000
AIST 2D 24 Oct 10:13:11 10:14:26 12° 66° (ENE) 10:15:43 435.315
AO-73 24 Oct 10:20:33 10:23:50 21° 293° (WNW) 10:27:02 145.935
QB50P2 24 Oct 10:31:43 10:32:41 11° 61° (ENE) 10:33:39 145.880/145.840
FO-29 24 Oct 10:32:28 10:35:16 14° 273° (W) 10:38:11 435.910
nSIGHT-1 24 Oct 10:33:53 10:36:22 20° 342° (NNW) 10:38:51 .
HO-68 24 Oct 10:35:01 10:38:08 13° 310° (NW) 10:41:15 435.675
ZACube-1 24 Oct 10:47:12 10:48:23 11° 299° (WNW) 10:49:34 437.345
BEESAT 2 24 Oct 11:09:46 11:12:22 17° 111° (ESE) 11:15:00 435.950
EO-88 24 Oct 11:09:59 11:13:34 62° 285° (WNW) 11:17:08 145.990 - 145.960
BEESAT 3 24 Oct 11:14:08 11:18:05 66° 120° (ESE) 11:22:06 437.485
ISS 24 Oct 11:18:58 11:21:06 16° 350° (N) 11:23:14 437.550
PRISM 24 Oct 11:19:29 11:22:44 23° 265° (W) 11:26:01 437.425
Max Valier Satellite 24 Oct 11:30:42 11:33:44 24° 290° (WNW) 11:36:43 145.860
DELFI C3 24 Oct 11:33:24 11:36:18 20° 293° (WNW) 11:39:11 145.870
RS-15 24 Oct 11:35:32 11:44:16 26° 260° (W) 11:52:45 29.354- 29.394
EO-79 24 Oct 11:37:02 11:41:08 48° 72° (ENE) 11:45:16 145.935-145.965
POLYITAN 1 24 Oct 11:42:59 11:47:10 56° 74° (ENE) 11:51:23 437.675
AIST 2D 24 Oct 11:43:53 11:47:13 42° 261° (W) 11:50:34 435.315
LO-87 24 Oct 11:44:57 11:48:23 39° 98° (E) 11:51:47 145.935 - 145.965
AO-85 24 Oct 11:48:33 11:51:47 25° 113° (ESE) 11:55:03 145.980
BUGSAT 1 24 Oct 12:01:11 12:04:06 18° 65° (ENE) 12:07:02 437.445
NANOSAT C BR1 24 Oct 12:02:01 12:06:15 82° 77° (ENE) 12:10:32 145.865
QB50P2 24 Oct 12:03:33 12:07:49 77° 257° (WSW) 12:12:08 145.880/145.840
YUBILEINY 24 Oct 12:04:48 12:08:26 13° 304° (NW) 12:12:05 435.215
SPROUT 24 Oct 12:07:53 12:09:20 11° 90° (E) 12:10:48 437.525
DUCHIFAT 1 24 Oct 12:10:07 12:14:21 88° 86° (E) 12:18:39 145.980
nSIGHT-1 24 Oct 12:11:47 12:13:33 14° 2° (N) 12:15:18 .
ESTCUBE 1 24 Oct 12:19:43 12:24:12 68° 102° (ESE) 12:28:39 437.505/2401.250
M-CUBED/EXP-1 PRIME 24 Oct 12:25:22 12:26:25 11° 60° (ENE) 12:27:27 437.505
Gurwin Techsat 1B 24 Oct 12:35:39 12:39:18 19° 62° (ENE) 12:42:58 435.225
BEESAT 2 24 Oct 12:45:53 12:49:44 44° 308° (NW) 12:53:39 435.950
BEESAT 3 24 Oct 12:53:38 12:56:03 15° 318° (NW) 12:58:29 437.485
ISS 24 Oct 12:56:23 12:58:32 16° 10° (N) 13:00:40 437.550
AO-7 24 Oct 13:04:38 13:08:33 14° 44° (NE) 13:12:27 .
Oscar 19 24 Oct 13:05:29 13:10:25 48° 71° (ENE) 13:15:21 437.125/150
EO-79 24 Oct 13:14:42 13:17:09 15° 269° (W) 13:19:35 145.935-145.965
SO-50 24 Oct 13:17:35 13:20:29 16° 39° (NE) 13:23:23 436.795
LO-87 24 Oct 13:19:34 13:21:25 14° 295° (WNW) 13:23:17 145.935 - 145.965
POLYITAN 1 24 Oct 13:21:21 13:23:17 13° 270° (W) 13:25:14 437.675
VELOX 1 24 Oct 13:25:30 13:29:54 57° 101° (E) 13:34:16 145.980
AO-85 24 Oct 13:28:39 13:32:02 28° 312° (NW) 13:35:33 145.980
BUGSAT 1 24 Oct 13:35:11 13:39:08 39° 262° (W) 13:43:09 437.445
SPROUT 24 Oct 13:41:22 13:45:37 62° 286° (WNW) 13:49:50 437.525
nSIGHT-1 24 Oct 13:47:53 13:50:38 25° 22° (NNE) 13:53:23 .
M-CUBED/EXP-1 PRIME 24 Oct 13:57:22 14:00:31 40° 255° (WSW) 14:03:37 437.505
ESTCUBE 1 24 Oct 13:58:25 14:00:26 13° 298° (WNW) 14:02:26 437.505/2401.250
Gurwin Techsat 1B 24 Oct 14:13:32 14:18:46 59° 259° (W) 14:24:02 435.225
DX 1 24 Oct 14:17:00 14:21:16 48° 100° (E) 14:25:31 434.975-435.025
50 SAT 24 Oct 14:25:22 14:28:41 87° 106° (ESE) 14:31:58 437.505
UKube-1 24 Oct 14:31:16 14:35:25 43° 99° (E) 14:39:32 .
ISS 24 Oct 14:32:27 14:35:37 45° 30° (NNE) 14:38:46 437.550
Oscar 19 24 Oct 14:46:08 14:49:58 21° 267° (W) 14:53:47 437.125/150
PCSat 24 Oct 14:50:27 14:52:54 13° 37° (NE) 14:55:21 145.827
AO-7 24 Oct 14:51:32 14:59:37 60° 65° (ENE) 15:07:43 .
SO-50 24 Oct 14:56:53 15:01:31 82° 238° (WSW) 15:06:11 436.795
VELOX 1 24 Oct 15:03:22 15:05:51 15° 297° (WNW) 15:08:21 145.980
nSIGHT-1 24 Oct 15:23:56 15:27:04 49° 220° (SW) 15:30:09 .
ITAMSAT 1 24 Oct 15:27:11 15:32:19 65° 73° (ENE) 15:37:30 435.822/435.867
ITUPSAT 1 24 Oct 15:52:03 15:56:35 40° 99° (E) 16:01:03 437.325
DX 1 24 Oct 15:54:18 15:57:03 17° 296° (WNW) 15:59:48 434.975-435.025
DOVE 4 24 Oct 15:59:57 16:02:18 14° 62° (ENE) 16:04:41 437.250
BEESAT 24 Oct 16:04:12 16:08:54 55° 101° (E) 16:13:33 436.000
UKube-1 24 Oct 16:08:11 16:11:05 18° 296° (WNW) 16:13:59 .
ISS 24 Oct 16:09:19 16:11:53 21° 226° (SW) 16:14:27 437.550
MOZHAYETS 4 24 Oct 16:15:09 16:19:46 87° 108° (ESE) 16:24:19
PCSat 24 Oct 16:32:00 16:37:24 64° 58° (ENE) 16:42:46 145.827
CUBESAT XI-V 24 Oct 16:39:08 16:43:19 34° 97° (E) 16:47:30 437.345
AO-7 24 Oct 16:45:41 16:52:46 31° 264° (W) 16:59:54 .
XW-2B 24 Oct 16:58:22 16:59:37 11° 64° (ENE) 17:00:51 145.730 - 145.750
KKS-1 24 Oct 17:08:40 17:11:50 19° 93° (E) 17:14:58 437.445
ITAMSAT 1 24 Oct 17:09:15 17:12:14 15° 269° (W) 17:15:15 435.822/435.867
XW-2C 24 Oct 17:20:06 17:22:57 21° 68° (ENE) 17:25:49 145.795 - 145.815
HO-68 24 Oct 17:28:06 17:32:59 20° 55° (NE) 17:37:52 435.675
STARS 24 Oct 17:29:02 17:30:41 12° 90° (E) 17:32:19 437.465
ITUPSAT 1 24 Oct 17:30:26 17:34:08 23° 295° (WNW) 17:37:48 437.325
DOVE 4 24 Oct 17:35:19 17:39:27 54° 261° (W) 17:43:49 437.250
BEESAT 24 Oct 17:43:08 17:46:13 17° 297° (WNW) 17:49:17 436.000
KAITUO 1B 24 Oct 17:49:48 17:53:09 33° 72° (ENE) 17:56:30 145.475/437.950
MOZHAYETS 4 24 Oct 17:55:21 17:56:11 10° 300° (WNW) 17:57:01
NUDT-PHONESAT 24 Oct 17:55:44 17:59:10 37° 72° (ENE) 18:02:35 437.300
XW-2F 24 Oct 17:59:36 18:03:19 58° 74° (ENE) 18:07:01 145.980 - 146.000
CUTE-I 24 Oct 18:10:11 18:15:28 71° 74° (ENE) 18:20:49 437.470
LilacSat-2 24 Oct 18:15:08 18:18:57 76° 260° (W) 18:22:45 437.200
XW-2D 24 Oct 18:15:52 18:19:39 77° 258° (WSW) 18:23:27 145.860 - 145.880
PCSat 24 Oct 18:16:42 18:20:14 18° 255° (WSW) 18:23:46 145.827
CUBESAT XI-V 24 Oct 18:16:49 18:20:31 25° 293° (WNW) 18:24:13 437.345
YUBILEINY 24 Oct 18:17:02 18:20:44 13° 56° (NE) 18:24:26 435.215
SEEDS 24 Oct 18:18:45 18:20:57 14° 64° (ENE) 18:23:09 437.485
CUTE 1.7 + AOD 2 24 Oct 18:19:49 18:23:10 23° 68° (ENE) 18:26:31 437.475
XW-2B 24 Oct 18:29:36 18:33:19 53° 261° (W) 18:37:02 145.730 - 145.750
CUBEBUG 2 24 Oct 18:34:05 18:37:45 23° 66° (ENE) 18:41:26 437.445
KKS-1 24 Oct 18:44:19 18:48:33 42° 289° (WNW) 18:52:45 437.445
XW-2C 24 Oct 18:53:44 18:56:59 27° 264° (W) 19:00:13 145.795 - 145.815
O/OREOS (USA 219) 24 Oct 18:57:51 19:00:39 16° 99° (E) 19:03:28 437.305
UWE-3 24 Oct 19:01:45 19:05:32 25° 67° (ENE) 19:09:19 435.000/436.395/437.385
STARS 24 Oct 19:03:01 19:07:26 64° 286° (WNW) 19:11:48 437.465
HO-68 24 Oct 19:12:38 19:19:49 86° 254° (WSW) 19:27:04 435.675
KAITUO 1B 24 Oct 19:24:53 19:27:13 16° 267° (W) 19:29:33 145.475/437.950
STRAND 1 24 Oct 19:26:30 19:30:28 22° 93° (E) 19:34:22 437.568
BEESAT 2 24 Oct 19:26:33 19:28:49 14° 41° (NE) 19:31:04 435.950
BEESAT 3 24 Oct 19:30:38 19:34:24 39° 51° (NE) 19:38:05 437.485
NUDT-PHONESAT 24 Oct 19:31:10 19:33:09 14° 268° (W) 19:35:09 437.300
AO-73 24 Oct 19:39:05 19:42:58 29° 69° (ENE) 19:46:52 145.935
XW-2A 24 Oct 19:46:12 19:49:37 81° 77° (ENE) 19:53:01 145.665 - 145.685
SEEDS 24 Oct 19:52:08 19:56:11 51° 260° (W) 20:00:16 437.485
CUTE-I 24 Oct 19:53:12 19:56:03 14° 270° (W) 19:58:54 437.470
FO-29 24 Oct 19:54:57 19:57:06 11° 86° (E) 19:59:17 435.910
CUTE 1.7 + AOD 2 24 Oct 19:55:09 19:58:52 29° 264° (W) 20:02:34 437.475
AAUSAT CUBESAT 2 24 Oct 20:00:51 20:04:57 84° 76° (ENE) 20:09:04 437.432
ZACube-1 24 Oct 20:03:30 20:08:00 58° 74° (ENE) 20:12:29 437.345
CUBEBUG 2 24 Oct 20:09:40 20:14:05 40° 263° (W) 20:18:34 437.445
YUBILEINY 24 Oct 20:10:45 20:19:32 65° 79° (E) 20:28:17 435.215
AO-85 24 Oct 20:18:00 20:22:01 30° 49° (NE) 20:26:18 145.980
Oscar 11 24 Oct 20:31:41 20:35:59 70° 76° (ENE) 20:40:18 .
O/OREOS (USA 219) 24 Oct 20:35:10 20:39:36 50° 296° (WNW) 20:44:06 437.305
UWE-3 24 Oct 20:37:33 20:41:47 34° 264° (W) 20:46:04 435.000/436.395/437.385
Max Valier Satellite 24 Oct 20:38:00 20:38:52 11° 64° (ENE) 20:39:43 145.860
DELFI C3 24 Oct 20:44:06 20:46:52 19° 67° (ENE) 20:49:39 145.870
BEESAT 2 24 Oct 21:02:59 21:07:02 73° 240° (WSW) 21:10:59 435.950
HO-68 24 Oct 21:04:46 21:08:30 15° 272° (W) 21:12:14 435.675
STRAND 1 24 Oct 21:04:55 21:09:50 46° 290° (WNW) 21:14:42 437.568
BEESAT 3 24 Oct 21:08:54 21:11:38 18° 249° (WSW) 21:14:20 437.485
AO-73 24 Oct 21:15:11 21:19:07 28° 265° (W) 21:23:03 145.935
FO-29 24 Oct 21:35:55 21:43:05 67° 102° (ESE) 21:50:48 435.910
ZACube-1 24 Oct 21:42:10 21:44:35 14° 270° (W) 21:47:02 437.345
RS-15 24 Oct 21:44:25 21:45:22 10° 91° (E) 21:46:20 29.354- 29.394
EO-88 24 Oct 21:47:12 21:50:45 52° 74° (ENE) 21:54:18 145.990 - 145.960
UNISAT 6 24 Oct 21:51:53 21:55:19 21° 93° (E) 21:58:39 437.425
AO-85 24 Oct 21:58:13 22:02:28 36° 244° (WSW) 22:06:58 145.980
TIGRISAT 24 Oct 22:04:58 22:08:47 26° 94° (E) 22:12:30 435.000
Max Valier Satellite 24 Oct 22:08:31 22:12:11 56° 260° (W) 22:15:52 145.860
YUBILEINY 24 Oct 22:08:37 22:15:36 28° 278° (W) 22:22:37 435.215
Oscar 11 24 Oct 22:11:59 22:12:34 10° 271° (W) 22:13:10 .
DELFI C3 24 Oct 22:17:52 22:21:23 32° 263° (W) 22:24:55 145.870
LO-87 24 Oct 22:21:41 22:24:05 17° 67° (ENE) 22:26:31 145.935 - 145.965
